Date,TemperatureHighF,TemperatureAvgF,TemperatureLowF,DewpointHighF,DewpointAvgF,DewpointLowF,HumidityHigh,HumidityAvg,HumidityLow,PressureMaxIn,PressureMinIn,WindSpeedMaxMPH,WindSpeedAvgMPH,GustSpeedMaxMPH,PrecipitationSumIn
2013-3-1,45,42,40,37,-22,-100,82,45,76,30.55,30.44,0,-999,0,0.00
2013-3-2,52,48,36,42,33,-100,86,69,64,30.37,30.25,0,-999,0,0.00
2013-3-3,46,44,43,42,41,40,93,90,83,30.26,30.12,0,-999,0,0.00
2013-3-4,44,44,43,42,37,34,93,76,69,29.99,29.73,0,-999,0,0.00
2013-3-5,47,45,44,44,41,38,91,84,76,29.77,29.63,0,-999,0,0.00
2013-3-6,48,44,42,42,38,35,93,77,64,29.84,29.69,0,-999,0,0.00
2013-3-7,47,45,43,44,40,38,88,83,74,29.67,29.47,0,-999,0,0.00
2013-3-8,46,44,43,39,36,34,79,73,66,29.67,29.47,0,-999,0,0.00
2013-3-9,44,42,40,35,30,24,71,63,52,29.93,29.66,0,-999,0,0.00
2013-3-10,41,38,35,29,24,16,70,56,39,30.18,29.94,0,-999,0,0.00
2013-3-11,41,39,35,30,-10,-100,64,41,48,30.27,30.18,0,-999,0,0.00
2013-3-12,42,41,37,35,-15,-100,86,47,58,30.21,29.97,0,-999,0,0.00
2013-3-13,40,38,35,30,-72,-100,71,14,64,30.02,29.94,0,-999,0,0.00
2013-3-14,51,40,34,43,10,-100,93,69,72,29.96,29.41,0,-999,0,0.00
2013-3-15,45,43,40,41,40,38,93,88,77,29.39,29.21,0,-999,0,0.00
2013-3-16,43,42,42,41,40,40,92,90,89,29.40,29.39,0,-999,0,0.00
2013-3-17,42,41,38,41,38,35,95,89,83,29.46,29.26,0,-999,0,0.00
2013-3-18,38,38,37,35,14,-100,89,66,60,29.79,29.56,0,-999,0,0.00
2013-3-19,40,38,34,34,20,-100,98,59,49,29.81,29.77,0,-999,0,0.00
2013-3-20,36,35,34,34,-33,-100,99,40,65,30.09,29.82,0,-999,0,0.00
2013-3-21,40,37,35,30,7,-100,80,58,58,30.10,30.05,0,-999,0,0.00
2013-3-22,37,36,35,30,18,-100,79,67,70,30.05,29.98,0,-999,0,0.00
2013-3-23,36,35,35,30,27,22,79,70,58,30.21,30.06,0,-999,0,0.00
2013-3-24,37,36,35,27,25,23,68,63,57,30.31,30.20,0,-999,0,0.00
2013-3-25,38,36,35,29,15,-100,78,61,58,30.37,30.29,0,-999,0,0.00
2013-3-26,39,37,35,34,27,23,97,67,54,30.35,30.27,0,-999,0,0.00
2013-3-27,44,39,36,27,-14,-100,68,39,50,30.26,30.19,0,-999,0,0.00
2013-3-28,43,42,41,30,14,-100,62,49,49,30.20,30.03,0,-999,0,0.00
2013-3-29,42,40,36,35,-34,-100,82,32,57,30.06,30.01,0,-999,0,0.00
2013-3-30,42,40,39,35,-17,-100,82,41,59,30.03,29.99,0,-999,0,0.00
2013-3-31,42,39,37,30,3,-100,76,50,44,30.01,29.96,0,-999,0,0.00